Location: Burbank
(38.7788°N, 114.0429°W)
Time: 20:42:05
(UTC+00:00)

Vanguard 2 - Pass Details

Date: 15 May 2026
Orbit: 553 x 2894 km, 32.9° (Epoch: 6 June)

Event Time Altitude Azimuth Distance (km) Brightness Sun altitude
Rises 16:51:07 0° 275° (W) 5,768 11.6 49.9°
Reaches altitude 10° 16:58:23 10° 252° (WSW) 4,139 11.1 51.3°
Maximum altitude 17:02:08 12° 231° (SW) 3,583 10.9 52.0°
Drops below altitude 10° 17:05:23 10° 209° (SSW) 3,437 10.9 52.6°
Sets 17:10:06 0° 180° (S) 3,901 11.3 53.4°
